Flag for U.S.A. Weather past 2 weeks in Allentown, Pennsylvania, U.S.A.

Now
32 °F

Overcast.


Feels Like: 24 °F
Forecast: 26 / 36 °F
Wind: 9 mph from North

Location: Lehigh Valley International Airport

Current Time: Mar 28, 2015 at 6:09:51 AM

Latest Report: Mar 28, 2015 at 4:51 AM


Visibility: 10 mi

Pressure: 29.82 "Hg

Humidity: 59%

Dew point: 19 °F

Location of AllentownLocation

Historic Weather in Allentown — Graph

°F

Allentown temperature yesterday

Maximum temperature yesterday: 46 °F (at 3:51 PM)
Minimum temperature yesterday: 35 °F (at 10:51 PM)
Average temperature yesterday: 41 °F

Past Weeks' High & Low Weather Summary

 TemperatureHumidityPressure
High58 °F (Mar 17, 11:51 AM)100% (Mar 21, 8:51 AM)30.65 "Hg (Mar 21, 8:51 AM)
Low22 °F (Mar 19, 4:51 AM)19% (Mar 18, 3:51 PM)29.59 "Hg (Mar 26, 6:03 PM)
Average37 °F59%30.08 "Hg
* Reported Mar 13 4:51 AM — Mar 28 4:51 AM, Allentown, Weather by CustomWeather, © 2015

Note: Actual official high and low records may vary slightly from our data, if they occured in-between our weather recording intervals... More about our weather records

Advertising

Allentown weather history for previous 24 hours

 ConditionsComfort  
Time TempWeatherWind HumidityBarometerVisibility
4:51 AM
Sat, Mar 28
32 °FOvercast.9 mph59%29.82 "Hg10 mi
3:51 AM32 °FPassing clouds.12 mph61%29.82 "Hg10 mi
2:51 AM33 °FPassing clouds.10 mph66%29.81 "Hg10 mi
1:51 AM34 °FPassing clouds.8 mph70%29.83 "Hg10 mi
12:51 AM35 °FPassing clouds.8 mph70%29.82 "Hg10 mi
11:51 PM
Fri, Mar 27
35 °FPassing clouds.7 mph67%29.83 "Hg10 mi
10:51 PM35 °FPassing clouds.6 mph67%29.82 "Hg10 mi
9:51 PM39 °FOvercast.3 mph55%29.82 "Hg10 mi
8:51 PM38 °FOvercast.No wind63%29.81 "Hg10 mi
7:51 PM40 °FPartly sunny.6 mph53%29.78 "Hg10 mi
6:51 PM42 °FPassing clouds.8 mph49%29.77 "Hg10 mi
5:51 PM45 °FScattered clouds.12 mph45%29.75 "Hg10 mi
4:51 PM46 °FSunny.8 mph44%29.75 "Hg10 mi
3:51 PM46 °FPartly sunny.10 mph50%29.74 "Hg10 mi
2:51 PM44 °FOvercast.12 mph53%29.77 "Hg10 mi
1:51 PM43 °FPartly sunny.10 mph53%29.78 "Hg10 mi
12:51 PM43 °FMostly cloudy.9 mph56%29.78 "Hg10 mi
11:51 AM42 °FPartly sunny.10 mph62%29.78 "Hg10 mi
10:51 AM42 °FOvercast.6 mph65%29.78 "Hg10 mi
9:51 AM42 °FPartly sunny.9 mph68%29.78 "Hg10 mi
8:51 AM40 °FMore clouds than sun.No wind73%29.79 "Hg10 mi
7:51 AM39 °FOvercast.No wind79%29.77 "Hg10 mi
6:51 AM39 °FPassing clouds.3 mph79%29.79 "Hg10 mi
Weather by CustomWeather, © 2015

See weather overviewHow to use our weather pages